Showing default

INTELSAT 2-F3, 2717

Orbit data source: Space-Track

INTELSAT 2-F3, 2717 is a payload satellite owned by INTELSAT (US) in GEO that was launched on Thu, 23 Mar 1967 UTC via a THOR DELTA E1 launch vehicle from the Air Force Eastern Test Range (AFETR). Payload-class satellites include a variety of spacecraft equipped with specific instruments for various scientific and technological missions. These include communications satellites like Starlink; space stations such as the ISS; scientific satellites like the Hubble; Earth observation satellites from companies like Planet Labs, Umbra, and HawkEye 360; GPS; miniature CubeSats for education and research; and military/defense satellites.

Not visible in the next 10 days
Identifier
2717, 1967-026A
Orbit
GEO
Country
Flag of USUS / ITSO
Related business
Manufacturer
Hughes
Mission
Non-operational spacecraft
Bus & Motor
HS-303, SVM-1
Mass
163 kg wet, ~65 kg dry
Launch date (UTC)
1967-03-23 (60 years ago)
Launch vehicle
THOR DELTA E1
Launch site
Air Force Eastern Test Range (AFETR)
Object type
Payload
Rocket body
Debris
Shape & HBR
CYL, 1.1 m
Radar Cross Section
Large (>1 m²)

Expand to show TLE details & history
Last TLE update: 7 hours ago

TLE from 7 hours ago
0 INTELSAT 2-F3
1 02717U 67026A   26266.94479039 -.00000027  00000-0  00000-0 0  9995
2 02717   4.3205  67.1968 0017887 222.1657 119.6062  1.00392804124881
Epoch: 2026-09-23T22:40Z
TLE epoch observation values (Epoch: 2026-09-23T22:40:29.889Z)
Latitude
-1.3593°
Longitude
66.25698°
Altitude
35,789.296 km
Speed
3.073 km/s
True Right ascension
03h 16m 40s
True Declination
-1° 21' 29"
Sunlit
Object was in daylight at epoch
Visualization orbit readout
Latitude
Unknown
Longitude
Unknown
Altitude
Unknown
Speed
Unknown
Apparent Right ascension
Unknown
Apparent Declination
Unknown
Sunlit
N/A
Visualization observer readout
Local Sidereal Time
22:49:27
Azimuth
Unknown
Elevation
Unknown
Doppler factor
Unknown
Orbital elements
Apogee altitude
35,829.127 km
Perigee altitude
35,678.404 km
Semi-major axis
42,131.902 km
Eccentricity
0.00179
Inclination
4.3205°
RAAN
67.1968°
Arg. of periapsis
222.1657°
True anomaly
119.78421°
Mean anomaly
119.6062°
Eccentric anomaly
119.69523°
Mean motion
0.25097 °/min
Orbital period
1,434.42 mins
BSTAR
0
Loading maneuver chart data...
Computing Atmospheric mass density...
Loading historical data...
Loading historical data...
Loading historical data...
Loading historical data...
Loading historical data...
Loading historical data...
Loading historical data...
Other satellites on launch #26 in the year 1967 (1967-03-23 UTC)

Documentation

Showing up to 5 results
|